TIME,DELAY(SENSOR),PRES,OXYGEN,RAWTEMP,T(OPTODE),TCPHASE,FLUOR,BETA(BETA700),BETA(BETA412),BETA(BETA440),CDOM,C(CSC),ED(ED412.40),ED(ED444.00),ED(ED489.70),ED(ED554.30),LU(LU411.80),LU(LU443.40),LU(LU489.60),LU(LU554.10),COMP,TILTX,TILTY,CHECK
1381981555,5808,859.9299926757812000,54.5067710876464840,662.8226928710938000,4.5350022315979000,52.9660606384277340,51,96,84,78,78,15268,2147754715,2147423360,2148016969,2147872896,2147641536,2147057179,2148261440,2147197641,2017,3,13,58104
1381985151,5811,955.1300048828125000,58.0078392028808600,671.6176147460938000,4.2447490692138670,52.6193885803222660,52,96,85,79,78,15267,2147755547,2147426669,2148016109,2147879305,2147644699,2147047734,2148266962,2147197458,3,4,13,50591
1381988751,5810,970.4899902343750000,58.2434005737304700,671.5291137695312000,4.2476749420166020,52.5882415771484400,52,95,85,78,78,15268,2147753545,2147424384,2148013723,2147874386,2147642304,2147054409,2148265709,2147196653,118,4,13,58590
1381992351,5809,981.3599853515625000,58.0247688293457000,672.0065917968750000,4.2318902015686035,52.6218299865722660,52,96,86,78,78,15268,2147761344,2147423881,2148012297,2147875154,2147642779,2147060882,2148260726,2147196800,97,4,13,24306
1381995951,5811,982.5000000000000000,57.5320014953613300,671.7879028320312000,4.2391190528869630,52.6839218139648440,52,96,89,78,78,15267,2147756214,2147423149,2148017417,2147876278,2147639314,2147052909,2148262674,2147198272,361,4,13,21160
1381999551,5813,983.7800292968750000,57.6403503417968750,671.9838867187500000,4.2326388359069820,52.6749305725097660,52,96,88,78,78,15267,2147753417,2147423798,2148012242,2147876800,2147640612,2147053558,2148262665,2147199131,223,4,13,45336
1382003151,5809,993.5300292968750000,57.4249916076660160,672.2158813476562000,4.2249717712402340,52.7057418823242200,52,98,86,78,77,15266,2147756854,2147426176,2148011474,2147874441,2147639634,2147050861,2148261988,2147196946,507,4,13,30709
1382006751,5811,994.5000000000000000,57.1633415222168000,671.1243286132812000,4.2610511779785160,52.7220191955566400,52,95,87,78,78,15263,2147756278,2147424484,2148012736,2147873709,2147643977,2147052781,2148263259,2147197193,3539,4,13,47561
1382010351,5809,992.4199829101562000,56.9722099304199200,671.4807739257812000,4.2492680549621580,52.7531814575195300,52,98,83,78,78,15266,2147757376,2147425654,2148013650,2147875849,2147643949,2147056109,2148267501,2147200731,195,4,13,41039
1382013951,5807,994.2899780273438000,57.0060005187988300,671.7432250976562000,4.2405948638916020,52.7555503845214840,52,98,83,79,78,15264,2147756544,2147423926,2148011702,2147876233,2147641380,2147053046,2148261202,2147198985,302,4,13,51554
1382017551,5808,983.0999755859375000,57.3248291015625000,672.7628784179688000,4.2068839073181150,52.7219200134277340,51,97,87,78,78,15266,2147756132,2147424896,2148014857,2147871890,2147640384,2147056128,2148264219,2147196068,932,4,13,24562
1382021151,5809,986.6599731445312000,57.4310798645019500,673.9290161132812000,4.1683201789855960,52.7246017456054700,51,97,81,79,78,15266,2147756909,2147424137,2148012306,2147876516,2147643794,2147058642,2148265837,2147193581,153,4,13,8929
1382024751,5808,984.8400268554688000,57.7405014038085940,674.1337280273438000,4.1615509986877440,52.6915283203125000,52,96,85,78,78,15265,2147754834,2147424832,2148013522,2147873920,2147640969,2147052224,2148262244,2147196891,194,4,13,47112
1382028351,5810,985.5200195312500000,57.6449584960937500,674.6591796875000000,4.1441612243652340,52.7100105285644500,52,96,88,77,80,15260,2147755053,2147422884,2148014290,2147875986,2147642505,2147051044,2148263744,2147197833,97,4,13,23165
1382031951,5808,991.5499877929688000,57.6171302795410160,674.8720092773438000,4.1371212005615230,52.7149696350097660,53,96,85,81,80,15264,2147753664,2147426660,2148011529,2147871424,2147642038,2147054939,2148260443,2147198144,3336,4,13,2998
1382035551,5806,989.4799804687500000,57.4290809631347660,675.9108886718750000,4.1027369499206540,52.7533798217773440,52,96,82,77,78,15262,2147755821,2147424960,2148010550,2147876196,2147642084,2147049737,2148263424,2147198875,3442,4,13,35565
1382039151,5809,990.3099975585938000,56.9300384521484400,675.8845825195312000,4.1036109924316410,52.8168411254882800,53,96,86,78,77,15263,2147754450,2147423497,2148012937,2147875163,2147643958,2147054025,2148262217,2147196224,3405,4,13,20115
1382042751,5808,996.0200195312500000,57.4052505493164060,674.4483032226562000,4.1511421203613280,52.7394294738769500,52,97,84,77,78,15263,2147753993,2147423497,2148014674,2147873325,2147640539,2147053906,2148265874,2147196827,316,4,13,4947
1382046351,5811,1002.1599731445312000,57.8394889831543000,674.0269165039062000,4.1650829315185550,52.6734199523925800,52,97,85,77,78,15261,2147753536,2147424118,2148013001,2147872201,2147640512,2147051766,2148263579,2147194560,3576,4,13,14477
1382049951,5809,1006.5700073242188000,57.4647903442382800,673.6633911132812000,4.1771049499511720,52.7189598083496100,52,97,84,77,78,15260,2147753097,2147423725,2148010413,2147874084,2147639716,2147052708,2148267766,2147195318,263,4,13,4078
1382053551,5809,1005.9899902343750000,57.0105895996093750,672.0144042968750000,4.2316298484802250,52.7570610046386700,52,98,87,77,79,15261,2147751926,2147424054,2148010212,2147871305,2147639241,2147046290,2148264201,2147197549,60,4,13,33858
1382057151,5811,994.4199829101562000,56.3005104064941400,672.9384155273438000,4.2010841369628910,52.8622016906738300,51,95,85,79,79,15262,2147753737,2147425088,2148014564,2147873554,2147640091,2147055094,2148262217,2147194925,47,4,13,29404
1382060751,5811,991.1599731445312000,56.7961082458496100,674.0153808593750000,4.1654610633850100,52.8109817504882800,53,95,84,77,77,15256,2147752137,2147424164,2148010669,2147870994,2147641755,2147052214,2148261019,2147196717,3404,4,13,60467
1382064351,5808,998.1799926757812000,56.7348785400390600,674.7500000000000000,4.1411590576171875,52.8299598693847660,53,96,87,79,79,15260,2147755392,2147424905,2148013312,2147873810,2147642057,2147055204,2148261165,2147197412,3317,3,13,45650
1382067951,5810,994.7700195312500000,57.1014099121093750,674.6610717773438000,4.1441001892089840,52.7798194885253900,52,96,84,78,78,15262,2147754395,2147423122,2148014692,2147875885,2147644032,2147054262,2148262546,2147197129,3249,4,13,42700
1382071551,5810,995.9199829101562000,56.5476112365722660,674.6448974609375000,4.1446361541748050,52.8534011840820300,52,106,83,79,78,15260,2147757558,2147422537,2148013248,2147872749,2147642304,2147053010,2148263168,2147195629,3574,3,13,22831
1382075151,5809,989.9500122070312000,56.3452911376953100,674.6810913085938000,4.1434397697448730,52.8753700256347660,53,98,81,78,78,15260,2147755812,2147425325,2148015753,2147873737,2147641490,2147048740,2148262226,2147197732,3514,4,13,10951
1382078751,5812,997.8599853515625000,57.5429496765136700,674.6002807617188000,4.1461110115051270,52.7229804992675800,52,98,84,77,79,15261,2147752246,2147428059,2148009773,2147872310,2147640603,2147048548,2148260873,2147196480,198,4,13,54383
1382082351,5811,1001.4699707031250000,57.1070404052734400,674.1666259765625000,4.1604599952697750,52.7745208740234400,52,95,86,78,78,15261,2147754194,2147422180,2148010468,2147875236,2147640886,2147049453,2148263634,2147198555,371,4,13,56106
1382085951,5808,997.2700195312500000,57.1211891174316400,674.5078735351562000,4.1491699218750000,52.7747306823730500,53,99,83,78,79,15260,2147758290,2147421613,2148013787,2147873490,2147642313,2147053632,2148258880,2147199689,54,4,13,28200
1382089551,5807,1008.0399780273438000,57.3648796081543000,673.6550292968750000,4.1773819923400880,52.7335090637207000,52,97,84,78,78,15260,2147755675,2147423003,2148012992,2147877494,2147640210,2147052736,2148264923,2147199963,941,4,13,63311
1382093151,5809,1002.5300292968750000,57.1873397827148440,672.6209716796875000,4.2115778923034670,52.7382812500000000,52,98,85,78,78,15248,2147752265,2147421165,2148008960,2147874825,2147642816,2147059794,2148261330,2147196818,151,4,13,46967
1382096751,5807,1007.7000122070312000,56.4516716003418000,673.3165283203125000,4.1885781288146970,52.8487510681152340,53,98,86,77,78,15243,2147754770,2147426340,2148013805,2147873938,2147640283,2147051638,2148266313,2147198619,3424,4,13,57049
1382100351,5813,1015.8599853515625000,57.3740081787109400,672.2305297851562000,4.2244868278503420,52.7080116271972660,52,97,85,78,77,15247,2147753179,2147423094,2148013257,2147876342,2147642614,2147056521,2148260342,2147198656,6,4,13,23844
1382103951,5809,1007.3699951171875000,56.5850486755371100,672.3369750976562000,4.2209677696228030,52.8128089904785160,53,102,87,77,79,15248,2147754980,2147423798,2148012498,2147875702,2147640393,2147055259,2148266459,2147199177,2836,4,13,39996
1382107551,5809,1002.8400268554688000,56.8892898559570300,672.9641723632812000,4.2002282142639160,52.7845191955566400,52,96,85,77,78,15248,2147753133,2147422921,2148013897,2147877001,2147642395,2147055030,2148262528,2147198025,3000,4,13,15511
1382111151,5811,996.1400146484375000,55.7040481567382800,674.7100219726562000,4.1424832344055180,52.9599685668945300,52,97,85,78,80,15247,2147755620,2147427584,2148014272,2147873581,2147645229,2147052068,2148261769,2147198290,3245,4,13,13512
1382114751,5810,992.3200073242188000,56.3433914184570300,675.7106933593750000,4.1093668937683105,52.8940010070800800,51,98,85,79,79,15248,2147755008,2147424484,2148012928,2147874752,2147643904,2147053156,2148265033,2147195840,348,4,13,20870
1382118351,5808,992.1900024414062000,57.3343696594238300,676.2935791015625000,4.0900731086730960,52.7688713073730500,52,95,83,78,79,15246,2147754304,2147425517,2148013065,2147873069,2147642139,2147054701,2148268982,2147196406,3548,4,13,33384
1382121951,5809,999.9500122070312000,56.9133682250976560,675.8444213867188000,4.1049399375915530,52.8221588134765600,52,97,85,77,79,15248,2147752777,2147423442,2148012096,2147875008,2147644233,2147057846,2148260534,2147199762,86,4,13,50503
1382125551,5810,988.8499755859375000,57.5959510803222660,676.3319702148438000,4.0887989997863770,52.7351303100585940,52,96,83,78,79,15246,2147755300,2147425298,2148010916,2147873462,2147642230,2147054061,2148262930,2147195602,3434,3,13,57736
1382126156,5809,990.4899902343750000,57.7539596557617200,676.8787841796875000,4.0706939697265625,52.7238502502441400,53,95,83,79,78,15267,2147756909,2147422939,2148012571,2147870674,2147644397,2147051172,2148265124,2147196123,2915,4,13,18155
